Time,TemperatureF,DewpointF,PressureIn,WindDirection,WindDirectionDegrees,WindSpeedMPH,WindSpeedGustMPH,Humidity,HourlyPrecipIn,Conditions,Clouds,dailyrainin,SoftwareType,DateUTC
2013-07-31 00:01:00,59.4,55.8,30.13,West,280,0.0,9.0,88,0.00,,,0.00,Wunderground v.1.15,2013-07-31 07:01:00,
2013-07-31 00:06:00,59.4,55.8,30.13,West,280,0.0,9.0,88,0.00,,,0.00,Wunderground v.1.15,2013-07-31 07:06:00,
2013-07-31 00:12:00,59.4,55.8,30.13,West,280,0.0,9.0,88,0.00,,,0.00,Wunderground v.1.15,2013-07-31 07:12:00,
2013-07-31 00:17:00,59.4,55.8,30.13,West,280,0.0,9.0,88,0.00,,,0.00,Wunderground v.1.15,2013-07-31 07:17:00,
2013-07-31 00:22:00,59.4,55.8,30.13,West,280,1.0,9.0,88,0.00,,,0.00,Wunderground v.1.15,2013-07-31 07:22:00,
2013-07-31 00:28:00,59.3,55.7,30.13,West,280,0.0,9.0,88,0.00,,,0.00,Wunderground v.1.15,2013-07-31 07:28:00,
2013-07-31 00:34:00,59.3,55.7,30.13,West,280,0.0,9.0,88,0.00,,,0.00,Wunderground v.1.15,2013-07-31 07:34:00,
2013-07-31 00:39:00,59.3,55.7,30.13,West,280,0.0,9.0,88,0.00,,,0.00,Wunderground v.1.15,2013-07-31 07:39:00,
2013-07-31 00:45:00,59.2,55.6,30.13,West,280,0.0,9.0,88,0.00,,,0.00,Wunderground v.1.15,2013-07-31 07:45:00,
2013-07-31 00:51:00,59.2,56.0,30.13,West,280,0.0,9.0,89,0.00,,,0.00,Wunderground v.1.15,2013-07-31 07:51:00,
2013-07-31 00:57:00,59.2,55.6,30.13,North,5,0.0,9.0,88,0.00,,,0.00,Wunderground v.1.15,2013-07-31 07:57:00,
2013-07-31 01:02:00,59.1,55.5,30.13,North,5,0.0,9.0,88,0.00,,,0.00,Wunderground v.1.15,2013-07-31 08:02:00,
2013-07-31 01:07:00,59.1,55.5,30.13,West,277,0.0,9.0,88,0.00,,,0.00,Wunderground v.1.15,2013-07-31 08:07:00,
2013-07-31 01:13:00,59.1,55.5,30.13,West,277,0.0,9.0,88,0.00,,,0.00,Wunderground v.1.15,2013-07-31 08:13:00,
2013-07-31 01:19:00,59.0,55.4,30.13,West,275,1.0,9.0,88,0.00,,,0.00,Wunderground v.1.15,2013-07-31 08:19:00,
2013-07-31 01:24:00,59.0,55.4,30.13,WNW,297,1.0,9.0,88,0.00,,,0.00,Wunderground v.1.15,2013-07-31 08:24:00,
2013-07-31 01:29:00,59.0,55.8,30.13,WNW,297,1.0,9.0,89,0.00,,,0.00,Wunderground v.1.15,2013-07-31 08:29:00,
2013-07-31 01:34:00,59.0,55.4,30.13,WNW,297,0.0,9.0,88,0.00,,,0.00,Wunderground v.1.15,2013-07-31 08:34:00,
2013-07-31 01:40:00,58.9,55.7,30.12,West,277,0.0,9.0,89,0.00,,,0.00,Wunderground v.1.15,2013-07-31 08:40:00,
2013-07-31 01:45:00,58.9,55.7,30.12,West,281,1.0,9.0,89,0.00,,,0.00,Wunderground v.1.15,2013-07-31 08:45:00,
2013-07-31 01:51:00,58.8,55.6,30.12,West,281,1.0,9.0,89,0.00,,,0.00,Wunderground v.1.15,2013-07-31 08:51:00,
2013-07-31 01:57:00,58.7,55.5,30.12,West,281,0.0,9.0,89,0.00,,,0.00,Wunderground v.1.15,2013-07-31 08:57:00,
2013-07-31 02:03:00,58.7,55.5,30.12,West,281,0.0,9.0,89,0.00,,,0.00,Wunderground v.1.15,2013-07-31 09:03:00,
2013-07-31 02:08:00,58.6,55.4,30.12,WNW,286,1.0,9.0,89,0.00,,,0.00,Wunderground v.1.15,2013-07-31 09:08:00,
2013-07-31 02:13:00,58.6,55.4,30.12,WNW,286,1.0,9.0,89,0.00,,,0.00,Wunderground v.1.15,2013-07-31 09:13:00,
2013-07-31 02:19:00,58.6,55.4,30.12,WNW,286,1.0,9.0,89,0.00,,,0.00,Wunderground v.1.15,2013-07-31 09:19:00,
2013-07-31 02:25:00,58.6,55.4,30.12,WNW,286,0.0,9.0,89,0.00,,,0.00,Wunderground v.1.15,2013-07-31 09:25:00,
2013-07-31 02:31:00,58.5,55.3,30.11,WNW,298,1.0,9.0,89,0.00,,,0.00,Wunderground v.1.15,2013-07-31 09:31:00,
2013-07-31 02:36:00,58.5,55.3,30.11,WNW,302,1.0,9.0,89,0.00,,,0.00,Wunderground v.1.15,2013-07-31 09:36:00,
2013-07-31 02:41:00,58.5,55.3,30.11,WNW,302,0.0,9.0,89,0.00,,,0.00,Wunderground v.1.15,2013-07-31 09:41:00,
2013-07-31 02:46:00,58.5,55.6,30.11,WNW,302,0.0,9.0,90,0.00,,,0.00,Wunderground v.1.15,2013-07-31 09:46:00,
2013-07-31 02:52:00,58.5,55.6,30.11,WNW,302,0.0,9.0,90,0.00,,,0.00,Wunderground v.1.15,2013-07-31 09:52:00,
2013-07-31 02:57:00,58.4,55.5,30.11,WNW,302,0.0,9.0,90,0.00,,,0.00,Wunderground v.1.15,2013-07-31 09:57:00,
2013-07-31 03:03:00,58.4,55.5,30.11,WNW,302,0.0,9.0,90,0.00,,,0.00,Wunderground v.1.15,2013-07-31 10:03:00,
2013-07-31 03:08:00,58.3,55.4,30.11,WNW,302,1.0,9.0,90,0.00,,,0.00,Wunderground v.1.15,2013-07-31 10:08:00,
2013-07-31 03:14:00,58.3,55.4,30.11,WNW,302,0.0,9.0,90,0.00,,,0.00,Wunderground v.1.15,2013-07-31 10:14:00,
2013-07-31 03:19:00,58.3,55.4,30.11,WNW,302,0.0,9.0,90,0.00,,,0.00,Wunderground v.1.15,2013-07-31 10:19:00,
2013-07-31 03:24:00,58.3,55.4,30.11,WNW,302,0.0,9.0,90,0.00,,,0.00,Wunderground v.1.15,2013-07-31 10:24:00,
2013-07-31 03:29:00,58.2,55.3,30.11,WNW,302,1.0,9.0,90,0.00,,,0.00,Wunderground v.1.15,2013-07-31 10:29:00,
2013-07-31 03:34:00,58.2,55.3,30.11,WNW,302,1.0,9.0,90,0.00,,,0.00,Wunderground v.1.15,2013-07-31 10:34:00,
2013-07-31 03:39:00,58.2,55.3,30.11,WNW,302,1.0,9.0,90,0.00,,,0.00,Wunderground v.1.15,2013-07-31 10:39:00,
2013-07-31 03:45:00,58.2,55.6,30.11,WNW,302,1.0,9.0,91,0.00,,,0.00,Wunderground v.1.15,2013-07-31 10:45:00,
2013-07-31 03:50:00,58.2,55.6,30.11,WNW,302,0.0,9.0,91,0.00,,,0.00,Wunderground v.1.15,2013-07-31 10:50:00,
2013-07-31 03:56:00,58.1,55.5,30.12,WNW,302,0.0,9.0,91,0.00,,,0.00,Wunderground v.1.15,2013-07-31 10:56:00,
2013-07-31 04:02:00,58.1,55.2,30.12,WNW,302,0.0,9.0,90,0.00,,,0.00,Wunderground v.1.15,2013-07-31 11:02:00,
2013-07-31 04:07:00,58.1,55.5,30.12,WNW,302,0.0,9.0,91,0.00,,,0.00,Wunderground v.1.15,2013-07-31 11:07:00,
2013-07-31 04:12:00,58.1,55.5,30.12,WNW,302,0.0,9.0,91,0.00,,,0.00,Wunderground v.1.15,2013-07-31 11:12:00,
2013-07-31 04:17:00,58.1,55.5,30.11,WNW,302,0.0,9.0,91,0.00,,,0.00,Wunderground v.1.15,2013-07-31 11:17:00,
2013-07-31 04:23:00,58.0,55.4,30.11,NW,304,0.0,9.0,91,0.00,,,0.00,Wunderground v.1.15,2013-07-31 11:23:00,
2013-07-31 04:28:00,58.0,55.4,30.11,NW,304,0.0,9.0,91,0.00,,,0.00,Wunderground v.1.15,2013-07-31 11:28:00,
2013-07-31 04:33:00,58.0,55.4,30.12,WNW,299,0.0,9.0,91,0.00,,,0.00,Wunderground v.1.15,2013-07-31 11:33:00,
2013-07-31 04:38:00,58.0,55.4,30.12,WNW,299,0.0,9.0,91,0.00,,,0.00,Wunderground v.1.15,2013-07-31 11:38:00,
2013-07-31 04:44:00,58.0,55.4,30.12,WNW,299,0.0,9.0,91,0.00,,,0.00,Wunderground v.1.15,2013-07-31 11:44:00,
2013-07-31 04:50:00,58.0,55.4,30.12,WNW,299,0.0,9.0,91,0.00,,,0.00,Wunderground v.1.15,2013-07-31 11:50:00,
2013-07-31 04:55:00,57.9,55.3,30.12,WNW,299,0.0,9.0,91,0.00,,,0.00,Wunderground v.1.15,2013-07-31 11:55:00,
2013-07-31 05:01:00,57.9,55.3,30.12,WNW,299,0.0,9.0,91,0.00,,,0.00,Wunderground v.1.15,2013-07-31 12:01:00,
2013-07-31 05:06:00,57.8,55.2,30.11,WNW,299,0.0,9.0,91,0.00,,,0.00,Wunderground v.1.15,2013-07-31 12:06:00,
2013-07-31 05:12:00,57.8,55.2,30.12,WNW,299,0.0,9.0,91,0.00,,,0.00,Wunderground v.1.15,2013-07-31 12:12:00,
2013-07-31 05:18:00,57.8,55.2,30.12,NW,316,0.0,9.0,91,0.00,,,0.00,Wunderground v.1.15,2013-07-31 12:18:00,
2013-07-31 05:24:00,57.8,55.2,30.12,NW,316,0.0,9.0,91,0.00,,,0.00,Wunderground v.1.15,2013-07-31 12:24:00,
2013-07-31 05:29:00,57.8,55.2,30.11,NW,316,0.0,9.0,91,0.00,,,0.00,Wunderground v.1.15,2013-07-31 12:29:00,
2013-07-31 05:35:00,57.7,55.1,30.11,NW,316,0.0,9.0,91,0.00,,,0.00,Wunderground v.1.15,2013-07-31 12:35:00,
2013-07-31 05:41:00,57.7,55.1,30.11,NW,316,0.0,9.0,91,0.00,,,0.00,Wunderground v.1.15,2013-07-31 12:41:00,
2013-07-31 05:47:00,57.7,55.1,30.10,NNE,19,1.0,9.0,91,0.00,,,0.00,Wunderground v.1.15,2013-07-31 12:47:00,
2013-07-31 05:53:00,57.6,55.0,30.10,NE,36,1.0,9.0,91,0.00,,,0.00,Wunderground v.1.15,2013-07-31 12:53:00,
2013-07-31 05:59:00,57.6,55.0,30.10,NNW,341,0.0,9.0,91,0.00,,,0.00,Wunderground v.1.15,2013-07-31 12:59:00,
2013-07-31 06:05:00,57.6,55.0,30.10,North,5,0.0,9.0,91,0.00,,,0.00,Wunderground v.1.15,2013-07-31 13:05:00,
2013-07-31 06:11:00,57.6,55.0,30.10,North,5,0.0,9.0,91,0.00,,,0.00,Wunderground v.1.15,2013-07-31 13:11:00,
2013-07-31 06:17:00,57.6,55.0,30.10,North,5,0.0,9.0,91,0.00,,,0.00,Wunderground v.1.15,2013-07-31 13:17:00,
2013-07-31 06:23:00,57.6,55.0,30.10,North,5,0.0,9.0,91,0.00,,,0.00,Wunderground v.1.15,2013-07-31 13:23:00,
2013-07-31 06:29:00,57.6,55.0,30.10,North,5,0.0,9.0,91,0.00,,,0.00,Wunderground v.1.15,2013-07-31 13:29:00,
2013-07-31 06:34:00,57.6,55.0,30.10,North,5,0.0,9.0,91,0.00,,,0.00,Wunderground v.1.15,2013-07-31 13:34:00,
2013-07-31 06:40:00,57.7,54.8,30.09,North,5,0.0,9.0,90,0.00,,,0.00,Wunderground v.1.15,2013-07-31 13:40:00,
2013-07-31 06:45:00,57.7,54.8,30.09,North,5,0.0,9.0,90,0.00,,,0.00,Wunderground v.1.15,2013-07-31 13:45:00,
2013-07-31 06:50:00,57.8,54.9,30.09,North,5,0.0,9.0,90,0.00,,,0.00,Wunderground v.1.15,2013-07-31 13:50:00,
2013-07-31 06:57:00,57.8,54.9,30.09,North,10,0.0,9.0,90,0.00,,,0.00,Wunderground v.1.15,2013-07-31 13:57:00,
2013-07-31 07:02:00,57.9,55.0,30.09,NNE,12,1.0,9.0,90,0.00,,,0.00,Wunderground v.1.15,2013-07-31 14:02:00,
2013-07-31 07:08:00,57.9,55.0,30.09,WNW,301,1.0,9.0,90,0.00,,,0.00,Wunderground v.1.15,2013-07-31 14:08:00,
2013-07-31 07:13:00,57.9,55.0,30.09,NW,325,1.0,9.0,90,0.00,,,0.00,Wunderground v.1.15,2013-07-31 14:13:00,
2013-07-31 07:19:00,58.0,55.1,30.09,NW,325,1.0,9.0,90,0.00,,,0.00,Wunderground v.1.15,2013-07-31 14:19:00,
2013-07-31 07:25:00,58.0,55.1,30.09,NNW,338,0.0,9.0,90,0.00,,,0.00,Wunderground v.1.15,2013-07-31 14:25:00,
2013-07-31 07:30:00,58.0,55.1,30.09,NNW,338,0.0,9.0,90,0.00,,,0.00,Wunderground v.1.15,2013-07-31 14:30:00,
2013-07-31 07:35:00,58.0,55.1,30.09,NNW,338,0.0,9.0,90,0.00,,,0.00,Wunderground v.1.15,2013-07-31 14:35:00,
2013-07-31 07:40:00,58.0,55.1,30.09,NNE,19,1.0,1.0,90,0.00,,,0.00,Wunderground v.1.15,2013-07-31 14:40:00,
2013-07-31 07:46:00,58.0,55.1,30.09,NNW,348,1.0,9.0,90,0.00,,,0.00,Wunderground v.1.15,2013-07-31 14:46:00,
2013-07-31 07:52:00,58.0,55.1,30.09,North,355,1.0,9.0,90,0.00,,,0.00,Wunderground v.1.15,2013-07-31 14:52:00,
2013-07-31 07:57:00,58.1,55.5,30.10,NNW,331,0.0,9.0,91,0.00,,,0.00,Wunderground v.1.15,2013-07-31 14:57:00,
2013-07-31 08:03:00,58.2,55.3,30.10,NNW,331,0.0,9.0,90,0.00,,,0.00,Wunderground v.1.15,2013-07-31 15:03:00,
2013-07-31 08:09:00,58.2,55.3,30.10,West,271,1.0,9.0,90,0.00,,,0.00,Wunderground v.1.15,2013-07-31 15:09:00,
2013-07-31 08:14:00,58.2,55.3,30.10,West,276,1.0,9.0,90,0.00,,,0.00,Wunderground v.1.15,2013-07-31 15:14:00,
2013-07-31 08:20:00,58.2,55.3,30.10,West,276,0.0,9.0,90,0.00,,,0.00,Wunderground v.1.15,2013-07-31 15:20:00,
2013-07-31 08:26:00,58.3,55.4,30.11,West,276,0.0,9.0,90,0.00,,,0.00,Wunderground v.1.15,2013-07-31 15:26:00,
2013-07-31 08:32:00,58.4,55.5,30.11,West,276,0.0,9.0,90,0.00,,,0.00,Wunderground v.1.15,2013-07-31 15:32:00,
2013-07-31 08:38:00,58.5,55.6,30.11,West,276,0.0,9.0,90,0.00,,,0.00,Wunderground v.1.15,2013-07-31 15:38:00,
2013-07-31 08:44:00,58.5,55.6,30.11,West,276,0.0,9.0,90,0.00,,,0.00,Wunderground v.1.15,2013-07-31 15:44:00,
2013-07-31 08:50:00,58.6,55.7,30.11,West,276,0.0,9.0,90,0.00,,,0.00,Wunderground v.1.15,2013-07-31 15:50:00,
2013-07-31 08:56:00,58.7,55.5,30.11,West,273,0.0,9.0,89,0.00,,,0.00,Wunderground v.1.15,2013-07-31 15:56:00,
2013-07-31 09:01:00,58.7,55.8,30.11,West,273,0.0,9.0,90,0.00,,,0.00,Wunderground v.1.15,2013-07-31 16:01:00,
2013-07-31 09:06:00,58.8,55.9,30.11,West,273,0.0,9.0,90,0.00,,,0.00,Wunderground v.1.15,2013-07-31 16:06:00,
2013-07-31 09:12:00,58.9,56.0,30.11,West,273,1.0,9.0,90,0.00,,,0.00,Wunderground v.1.15,2013-07-31 16:12:00,
2013-07-31 09:17:00,58.9,55.7,30.11,West,273,1.0,9.0,89,0.00,,,0.00,Wunderground v.1.15,2013-07-31 16:17:00,
2013-07-31 09:22:00,59.0,56.1,30.11,West,273,0.0,9.0,90,0.00,,,0.00,Wunderground v.1.15,2013-07-31 16:22:00,
2013-07-31 09:28:00,59.2,56.3,30.11,West,273,0.0,9.0,90,0.00,,,0.00,Wunderground v.1.15,2013-07-31 16:28:00,
2013-07-31 09:33:00,59.1,55.9,30.11,West,279,1.0,9.0,89,0.00,,,0.00,Wunderground v.1.15,2013-07-31 16:33:00,
2013-07-31 09:38:00,59.0,55.8,30.11,West,279,1.0,9.0,89,0.00,,,0.00,Wunderground v.1.15,2013-07-31 16:38:00,
2013-07-31 09:43:00,59.0,55.8,30.11,West,279,0.0,9.0,89,0.00,,,0.00,Wunderground v.1.15,2013-07-31 16:43:00,
2013-07-31 09:48:00,59.0,56.1,30.11,West,279,0.0,9.0,90,0.00,,,0.00,Wunderground v.1.15,2013-07-31 16:48:00,
2013-07-31 09:53:00,59.1,56.2,30.11,West,279,0.0,9.0,90,0.00,,,0.00,Wunderground v.1.15,2013-07-31 16:53:00,
2013-07-31 09:59:00,59.2,56.0,30.11,West,279,0.0,9.0,89,0.00,,,0.00,Wunderground v.1.15,2013-07-31 16:59:00,
2013-07-31 10:04:00,59.2,56.0,30.10,West,279,0.0,9.0,89,0.00,,,0.00,Wunderground v.1.15,2013-07-31 17:04:00,
2013-07-31 10:10:00,59.3,56.1,30.10,West,279,0.0,9.0,89,0.00,,,0.00,Wunderground v.1.15,2013-07-31 17:10:00,
2013-07-31 10:15:00,59.4,56.2,30.10,West,279,0.0,9.0,89,0.00,,,0.00,Wunderground v.1.15,2013-07-31 17:15:00,
2013-07-31 10:20:00,59.5,56.3,30.10,WNW,293,0.0,9.0,89,0.00,,,0.00,Wunderground v.1.15,2013-07-31 17:20:00,
2013-07-31 10:25:00,59.6,56.4,30.09,NNW,348,0.0,9.0,89,0.00,,,0.00,Wunderground v.1.15,2013-07-31 17:25:00,
2013-07-31 10:30:00,59.8,56.6,30.09,WNW,284,0.0,9.0,89,0.00,,,0.00,Wunderground v.1.15,2013-07-31 17:30:00,
2013-07-31 10:36:00,59.9,56.6,30.09,WNW,284,1.0,9.0,89,0.00,,,0.00,Wunderground v.1.15,2013-07-31 17:36:00,
2013-07-31 10:41:00,60.0,56.7,30.09,WNW,284,0.0,9.0,89,0.00,,,0.00,Wunderground v.1.15,2013-07-31 17:41:00,
2013-07-31 10:47:00,59.8,56.2,30.10,WNW,284,1.0,9.0,88,0.00,,,0.00,Wunderground v.1.15,2013-07-31 17:47:00,
2013-07-31 10:52:00,59.7,56.1,30.10,WNW,284,1.0,9.0,88,0.00,,,0.00,Wunderground v.1.15,2013-07-31 17:52:00,
2013-07-31 10:57:00,59.6,56.4,30.09,NW,325,2.0,9.0,89,0.00,,,0.00,Wunderground v.1.15,2013-07-31 17:57:00,
2013-07-31 11:03:00,59.8,56.6,30.08,WNW,285,2.0,9.0,89,0.00,,,0.00,Wunderground v.1.15,2013-07-31 18:03:00,
2013-07-31 11:08:00,60.0,56.7,30.09,West,273,2.0,9.0,89,0.00,,,0.00,Wunderground v.1.15,2013-07-31 18:08:00,
2013-07-31 11:13:00,60.0,56.4,30.09,NW,319,2.0,9.0,88,0.00,,,0.00,Wunderground v.1.15,2013-07-31 18:13:00,
2013-07-31 11:18:00,60.1,56.8,30.09,NW,319,1.0,9.0,89,0.00,,,0.00,Wunderground v.1.15,2013-07-31 18:18:00,
2013-07-31 11:24:00,60.3,57.0,30.09,NW,316,0.0,9.0,89,0.00,,,0.00,Wunderground v.1.15,2013-07-31 18:24:00,
2013-07-31 11:29:00,60.3,56.7,30.09,West,277,1.0,9.0,88,0.00,,,0.00,Wunderground v.1.15,2013-07-31 18:29:00,
2013-07-31 11:34:00,60.3,56.7,30.09,NNW,331,2.0,9.0,88,0.00,,,0.00,Wunderground v.1.15,2013-07-31 18:34:00,
2013-07-31 11:39:00,60.2,56.6,30.09,WNW,300,1.0,9.0,88,0.00,,,0.00,Wunderground v.1.15,2013-07-31 18:39:00,
2013-07-31 11:45:00,60.2,56.6,30.08,NW,323,1.0,9.0,88,0.00,,,0.00,Wunderground v.1.15,2013-07-31 18:45:00,
2013-07-31 11:50:00,60.2,56.6,30.08,NW,316,1.0,9.0,88,0.00,,,0.00,Wunderground v.1.15,2013-07-31 18:50:00,
2013-07-31 11:57:00,60.2,56.6,30.08,NW,321,1.0,9.0,88,0.00,,,0.00,Wunderground v.1.15,2013-07-31 18:57:00,
2013-07-31 12:03:00,60.3,56.7,30.08,WNW,296,1.0,9.0,88,0.00,,,0.00,Wunderground v.1.15,2013-07-31 19:03:00,
2013-07-31 12:08:00,60.3,56.4,30.08,NW,312,1.0,9.0,87,0.00,,,0.00,Wunderground v.1.15,2013-07-31 19:08:00,
2013-07-31 12:13:00,60.5,56.9,30.08,NW,317,1.0,9.0,88,0.00,,,0.00,Wunderground v.1.15,2013-07-31 19:13:00,
2013-07-31 12:18:00,60.8,57.2,30.08,WNW,300,1.0,9.0,88,0.00,,,0.00,Wunderground v.1.15,2013-07-31 19:18:00,
2013-07-31 12:23:00,60.9,57.0,30.08,West,273,1.0,9.0,87,0.00,,,0.00,Wunderground v.1.15,2013-07-31 19:23:00,
2013-07-31 12:28:00,61.0,56.8,30.08,NW,316,1.0,9.0,86,0.00,,,0.00,Wunderground v.1.15,2013-07-31 19:28:00,
2013-07-31 12:34:00,61.3,57.1,30.08,WNW,300,1.0,9.0,86,0.00,,,0.00,Wunderground v.1.15,2013-07-31 19:34:00,
2013-07-31 12:40:00,61.4,57.2,30.08,WNW,290,1.0,9.0,86,0.00,,,0.00,Wunderground v.1.15,2013-07-31 19:40:00,
2013-07-31 12:46:00,61.2,57.0,30.08,WNW,302,2.0,9.0,86,0.00,,,0.00,Wunderground v.1.15,2013-07-31 19:46:00,
2013-07-31 12:52:00,61.0,56.8,30.08,WNW,302,2.0,9.0,86,0.00,,,0.00,Wunderground v.1.15,2013-07-31 19:52:00,
2013-07-31 12:57:00,61.1,56.9,30.09,West,281,1.0,9.0,86,0.00,,,0.00,Wunderground v.1.15,2013-07-31 19:57:00,
2013-07-31 13:02:00,60.9,56.7,30.09,West,275,1.0,9.0,86,0.00,,,0.00,Wunderground v.1.15,2013-07-31 20:02:00,
2013-07-31 13:07:00,60.8,56.6,30.08,NNW,340,1.0,9.0,86,0.00,,,0.00,Wunderground v.1.15,2013-07-31 20:07:00,
2013-07-31 13:12:00,60.7,56.5,30.08,NW,306,1.0,9.0,86,0.00,,,0.00,Wunderground v.1.15,2013-07-31 20:12:00,
2013-07-31 13:17:00,60.6,56.4,30.08,NW,306,0.0,9.0,86,0.00,,,0.00,Wunderground v.1.15,2013-07-31 20:17:00,
2013-07-31 13:22:00,60.6,56.4,30.08,NW,309,1.0,9.0,86,0.00,,,0.00,Wunderground v.1.15,2013-07-31 20:22:00,
2013-07-31 13:27:00,60.4,56.2,30.09,West,279,2.0,9.0,86,0.00,,,0.00,Wunderground v.1.15,2013-07-31 20:27:00,
2013-07-31 13:32:00,60.3,56.4,30.08,NW,311,2.0,9.0,87,0.00,,,0.00,Wunderground v.1.15,2013-07-31 20:32:00,
2013-07-31 13:38:00,60.4,56.5,30.08,West,274,1.0,9.0,87,0.00,,,0.00,Wunderground v.1.15,2013-07-31 20:38:00,
2013-07-31 13:43:00,60.4,56.5,30.09,NW,313,1.0,9.0,87,0.00,,,0.00,Wunderground v.1.15,2013-07-31 20:43:00,
2013-07-31 13:48:00,60.4,56.2,30.08,WNW,290,1.0,9.0,86,0.00,,,0.00,Wunderground v.1.15,2013-07-31 20:48:00,
2013-07-31 13:54:00,60.9,56.7,30.08,NW,321,2.0,9.0,86,0.00,,,0.00,Wunderground v.1.15,2013-07-31 20:54:00,
2013-07-31 13:59:00,61.3,56.8,30.09,NNE,19,2.0,9.0,85,0.00,,,0.00,Wunderground v.1.15,2013-07-31 20:59:00,
2013-07-31 14:04:00,61.5,56.9,30.09,West,279,2.0,9.0,85,0.00,,,0.00,Wunderground v.1.15,2013-07-31 21:04:00,
2013-07-31 14:10:00,61.3,56.8,30.08,NNW,332,1.0,1.0,85,0.00,,,0.00,Wunderground v.1.15,2013-07-31 21:10:00,
2013-07-31 14:17:00,61.2,56.7,30.08,NNW,332,1.0,9.0,85,0.00,,,0.00,Wunderground v.1.15,2013-07-31 21:17:00,
2013-07-31 14:22:00,61.1,56.9,30.08,NE,34,1.0,9.0,86,0.00,,,0.00,Wunderground v.1.15,2013-07-31 21:22:00,
2013-07-31 14:27:00,61.2,57.0,30.08,NW,308,1.0,9.0,86,0.00,,,0.00,Wunderground v.1.15,2013-07-31 21:27:00,
2013-07-31 14:33:00,61.3,56.8,30.08,West,265,0.0,9.0,85,0.00,,,0.00,Wunderground v.1.15,2013-07-31 21:33:00,
2013-07-31 14:38:00,61.3,56.8,30.09,NW,316,1.0,9.0,85,0.00,,,0.00,Wunderground v.1.15,2013-07-31 21:38:00,
2013-07-31 14:44:00,61.3,56.8,30.09,NNW,337,1.0,9.0,85,0.00,,,0.00,Wunderground v.1.15,2013-07-31 21:44:00,
2013-07-31 14:49:00,61.5,56.9,30.09,NNE,20,0.0,9.0,85,0.00,,,0.00,Wunderground v.1.15,2013-07-31 21:49:00,
2013-07-31 14:54:00,61.8,57.2,30.09,WNW,294,0.0,9.0,85,0.00,,,0.00,Wunderground v.1.15,2013-07-31 21:54:00,
2013-07-31 14:59:00,61.9,57.0,30.09,NNW,346,0.0,9.0,84,0.00,,,0.00,Wunderground v.1.15,2013-07-31 21:59:00,
2013-07-31 15:04:00,62.0,57.1,30.09,NE,39,0.0,9.0,84,0.00,,,0.00,Wunderground v.1.15,2013-07-31 22:04:00,
2013-07-31 15:10:00,61.3,56.4,30.09,WNW,298,2.0,2.0,84,0.00,,,0.00,Wunderground v.1.15,2013-07-31 22:10:00,
2013-07-31 15:15:00,61.1,56.6,30.09,WNW,300,2.0,9.0,85,0.00,,,0.00,Wunderground v.1.15,2013-07-31 22:15:00,
2013-07-31 15:21:00,61.2,56.7,30.09,West,271,1.0,9.0,85,0.00,,,0.00,Wunderground v.1.15,2013-07-31 22:21:00,
2013-07-31 15:26:00,61.2,56.7,30.09,WSW,257,1.0,9.0,85,0.00,,,0.00,Wunderground v.1.15,2013-07-31 22:26:00,
2013-07-31 15:31:00,61.1,56.6,30.09,WNW,286,3.0,9.0,85,0.00,,,0.00,Wunderground v.1.15,2013-07-31 22:31:00,
2013-07-31 15:36:00,61.0,56.8,30.09,West,273,2.0,9.0,86,0.00,,,0.00,Wunderground v.1.15,2013-07-31 22:36:00,
2013-07-31 15:41:00,60.9,56.7,30.09,West,281,2.0,9.0,86,0.00,,,0.00,Wunderground v.1.15,2013-07-31 22:41:00,
2013-07-31 15:47:00,60.8,56.6,30.09,WNW,283,3.0,9.0,86,0.00,,,0.00,Wunderground v.1.15,2013-07-31 22:47:00,
2013-07-31 15:53:00,60.6,56.4,30.09,West,281,2.0,9.0,86,0.00,,,0.00,Wunderground v.1.15,2013-07-31 22:53:00,
2013-07-31 15:58:00,60.6,56.4,30.09,WNW,284,3.0,9.0,86,0.00,,,0.00,Wunderground v.1.15,2013-07-31 22:58:00,
2013-07-31 16:04:00,60.9,56.4,30.09,West,269,3.0,9.0,85,0.00,,,0.00,Wunderground v.1.15,2013-07-31 23:04:00,
2013-07-31 16:10:00,61.5,56.6,30.09,West,271,3.0,9.0,84,0.00,,,0.00,Wunderground v.1.15,2013-07-31 23:10:00,
2013-07-31 16:15:00,62.0,57.1,30.09,West,271,3.0,9.0,84,0.00,,,0.00,Wunderground v.1.15,2013-07-31 23:15:00,
2013-07-31 16:22:00,62.2,57.0,30.09,NNE,26,4.0,9.0,83,0.00,,,0.00,Wunderground v.1.15,2013-07-31 23:22:00,
2013-07-31 16:27:00,62.5,57.3,30.08,NW,315,2.0,9.0,83,0.00,,,0.00,Wunderground v.1.15,2013-07-31 23:27:00,
2013-07-31 16:38:00,62.8,56.9,30.08,NNW,336,1.0,1.0,81,0.00,,,0.00,Wunderground v.1.15,2013-07-31 23:38:00,
2013-07-31 16:44:00,62.6,56.3,30.08,WNW,294,1.0,4.0,80,0.00,,,0.00,Wunderground v.1.15,2013-07-31 23:44:00,
2013-07-31 16:49:00,62.1,56.2,30.08,WNW,298,3.0,6.0,81,0.00,,,0.00,Wunderground v.1.15,2013-07-31 23:49:00,
2013-07-31 16:55:00,61.9,56.3,30.08,WNW,301,4.0,6.0,82,0.00,,,0.00,Wunderground v.1.15,2013-07-31 23:55:00,
2013-07-31 17:01:00,61.8,56.2,30.08,WNW,298,3.0,3.0,82,0.00,,,0.00,Wunderground v.1.15,2013-08-01 00:01:00,
2013-07-31 17:06:00,61.7,56.1,30.08,West,276,3.0,6.0,82,0.00,,,0.00,Wunderground v.1.15,2013-08-01 00:06:00,
2013-07-31 17:12:00,61.5,56.0,30.08,West,280,3.0,4.0,82,0.00,,,0.00,Wunderground v.1.15,2013-08-01 00:12:00,
2013-07-31 17:18:00,61.4,56.2,30.08,NW,311,3.0,6.0,83,0.00,,,0.00,Wunderground v.1.15,2013-08-01 00:18:00,
2013-07-31 17:24:00,61.5,56.3,30.08,WNW,285,2.0,4.0,83,0.00,,,0.00,Wunderground v.1.15,2013-08-01 00:24:00,
2013-07-31 17:29:00,61.5,56.6,30.08,NE,48,1.0,4.0,84,0.00,,,0.00,Wunderground v.1.15,2013-08-01 00:29:00,
2013-07-31 17:35:00,61.5,56.3,30.08,West,278,2.0,10.0,83,0.00,,,0.00,Wunderground v.1.15,2013-08-01 00:35:00,
2013-07-31 17:40:00,61.3,56.1,30.08,West,279,3.0,10.0,83,0.00,,,0.00,Wunderground v.1.15,2013-08-01 00:40:00,
2013-07-31 17:47:00,61.2,56.0,30.09,NW,309,3.0,10.0,83,0.00,,,0.00,Wunderground v.1.15,2013-08-01 00:47:00,
2013-07-31 17:52:00,61.2,56.0,30.09,WNW,296,2.0,10.0,83,0.00,,,0.00,Wunderground v.1.15,2013-08-01 00:52:00,
2013-07-31 17:58:00,61.1,55.9,30.09,WNW,298,2.0,10.0,83,0.00,,,0.00,Wunderground v.1.15,2013-08-01 00:58:00,
2013-07-31 18:03:00,61.0,55.8,30.09,WNW,290,2.0,10.0,83,0.00,,,0.00,Wunderground v.1.15,2013-08-01 01:03:00,
2013-07-31 18:08:00,60.9,55.7,30.09,NW,305,2.0,10.0,83,0.00,,,0.00,Wunderground v.1.15,2013-08-01 01:08:00,
2013-07-31 18:13:00,60.9,55.7,30.09,NW,305,1.0,10.0,83,0.00,,,0.00,Wunderground v.1.15,2013-08-01 01:13:00,
2013-07-31 18:19:00,60.9,55.7,30.09,NW,313,0.0,10.0,83,0.00,,,0.00,Wunderground v.1.15,2013-08-01 01:19:00,
2013-07-31 18:24:00,60.9,55.7,30.09,West,281,0.0,10.0,83,0.00,,,0.00,Wunderground v.1.15,2013-08-01 01:24:00,
2013-07-31 18:30:00,60.8,55.6,30.08,West,277,1.0,10.0,83,0.00,,,0.00,Wunderground v.1.15,2013-08-01 01:30:00,
2013-07-31 18:35:00,60.8,55.9,30.08,NNW,331,1.0,10.0,84,0.00,,,0.00,Wunderground v.1.15,2013-08-01 01:35:00,
2013-07-31 18:41:00,60.9,56.4,30.08,NNW,338,0.0,10.0,85,0.00,,,0.00,Wunderground v.1.15,2013-08-01 01:41:00,
2013-07-31 18:47:00,61.0,56.8,30.08,NNW,338,0.0,10.0,86,0.00,,,0.00,Wunderground v.1.15,2013-08-01 01:47:00,
2013-07-31 18:53:00,60.8,56.3,30.08,West,267,1.0,10.0,85,0.00,,,0.00,Wunderground v.1.15,2013-08-01 01:53:00,
2013-07-31 18:59:00,60.6,56.4,30.08,West,272,2.0,10.0,86,0.00,,,0.00,Wunderground v.1.15,2013-08-01 01:59:00,
2013-07-31 19:04:00,60.5,56.6,30.08,West,271,3.0,10.0,87,0.00,,,0.00,Wunderground v.1.15,2013-08-01 02:04:00,
2013-07-31 19:10:00,60.3,56.4,30.09,West,266,3.0,3.0,87,0.00,,,0.00,Wunderground v.1.15,2013-08-01 02:10:00,
2013-07-31 19:15:00,60.2,56.6,30.09,WNW,282,3.0,10.0,88,0.00,,,0.00,Wunderground v.1.15,2013-08-01 02:15:00,
2013-07-31 19:20:00,60.0,56.4,30.08,West,266,3.0,10.0,88,0.00,,,0.00,Wunderground v.1.15,2013-08-01 02:20:00,
2013-07-31 19:25:00,59.8,56.2,30.09,West,271,3.0,10.0,88,0.00,,,0.00,Wunderground v.1.15,2013-08-01 02:25:00,
2013-07-31 19:32:00,59.6,56.4,30.09,West,271,3.0,10.0,89,0.00,,,0.00,Wunderground v.1.15,2013-08-01 02:32:00,
2013-07-31 19:37:00,59.6,56.4,30.09,WNW,295,2.0,10.0,89,0.00,,,0.00,Wunderground v.1.15,2013-08-01 02:37:00,
2013-07-31 19:42:00,59.5,56.3,30.09,West,275,1.0,10.0,89,0.00,,,0.00,Wunderground v.1.15,2013-08-01 02:42:00,
2013-07-31 19:47:00,59.4,56.5,30.09,West,275,1.0,10.0,90,0.00,,,0.00,Wunderground v.1.15,2013-08-01 02:47:00,
2013-07-31 19:52:00,59.1,56.2,30.09,West,275,1.0,10.0,90,0.00,,,0.00,Wunderground v.1.15,2013-08-01 02:52:00,
2013-07-31 19:57:00,59.0,56.4,30.09,West,275,0.0,10.0,91,0.00,,,0.00,Wunderground v.1.15,2013-08-01 02:57:00,
2013-07-31 20:02:00,58.7,56.1,30.09,West,275,1.0,10.0,91,0.00,,,0.00,Wunderground v.1.15,2013-08-01 03:02:00,
2013-07-31 20:08:00,58.5,56.2,30.09,West,274,1.0,10.0,92,0.00,,,0.00,Wunderground v.1.15,2013-08-01 03:08:00,
2013-07-31 20:13:00,58.3,56.0,30.09,West,275,1.0,10.0,92,0.00,,,0.00,Wunderground v.1.15,2013-08-01 03:13:00,
2013-07-31 20:18:00,58.2,55.9,30.09,West,275,1.0,10.0,92,0.00,,,0.00,Wunderground v.1.15,2013-08-01 03:18:00,
2013-07-31 20:23:00,58.1,56.1,30.09,West,275,1.0,10.0,93,0.00,,,0.00,Wunderground v.1.15,2013-08-01 03:23:00,
2013-07-31 20:28:00,58.0,56.0,30.09,West,275,1.0,10.0,93,0.00,,,0.00,Wunderground v.1.15,2013-08-01 03:28:00,
2013-07-31 20:33:00,57.9,55.9,30.09,West,275,0.0,10.0,93,0.00,,,0.00,Wunderground v.1.15,2013-08-01 03:33:00,
2013-07-31 20:39:00,57.8,55.8,30.09,West,275,0.0,10.0,93,0.00,,,0.00,Wunderground v.1.15,2013-08-01 03:39:00,
2013-07-31 20:44:00,57.7,56.0,30.09,West,275,0.0,10.0,94,0.00,,,0.00,Wunderground v.1.15,2013-08-01 03:44:00,
2013-07-31 20:49:00,57.6,55.9,30.09,West,275,0.0,10.0,94,0.00,,,0.00,Wunderground v.1.15,2013-08-01 03:49:00,
2013-07-31 20:54:00,57.5,55.8,30.09,West,275,0.0,10.0,94,0.00,,,0.00,Wunderground v.1.15,2013-08-01 03:54:00,
2013-07-31 20:59:00,57.5,55.8,30.09,West,275,0.0,10.0,94,0.00,,,0.00,Wunderground v.1.15,2013-08-01 03:59:00,
2013-07-31 21:01:00,57.5,55.8,30.09,West,275,0.0,10.0,94,0.00,,,0.00,Wunderground v.1.15,2013-08-01 04:01:00,
2013-07-31 21:02:00,57.4,55.7,30.09,West,275,0.0,10.0,94,0.00,,,0.00,Wunderground v.1.15,2013-08-01 04:02:00,
2013-07-31 21:04:00,57.4,56.0,30.09,West,275,0.0,10.0,95,0.00,,,0.00,Wunderground v.1.15,2013-08-01 04:04:00,
2013-07-31 21:08:00,57.3,55.9,30.09,West,275,0.0,10.0,95,0.00,,,0.00,Wunderground v.1.15,2013-08-01 04:08:00,
2013-07-31 21:14:00,57.3,55.9,30.09,West,275,0.0,10.0,95,0.00,,,0.00,Wunderground v.1.15,2013-08-01 04:14:00,
2013-07-31 21:19:00,57.2,55.8,30.09,West,275,0.0,10.0,95,0.00,,,0.00,Wunderground v.1.15,2013-08-01 04:19:00,
2013-07-31 21:23:00,57.2,55.8,30.09,West,275,0.0,10.0,95,0.00,,,0.00,Wunderground v.1.15,2013-08-01 04:23:00,
2013-07-31 21:28:00,57.1,55.7,30.09,West,275,0.0,10.0,95,0.00,,,0.00,Wunderground v.1.15,2013-08-01 04:28:00,
2013-07-31 21:33:00,57.1,55.7,30.09,West,275,0.0,10.0,95,0.00,,,0.00,Wunderground v.1.15,2013-08-01 04:33:00,
2013-07-31 21:38:00,57.0,55.6,30.09,West,275,0.0,10.0,95,0.00,,,0.00,Wunderground v.1.15,2013-08-01 04:38:00,
2013-07-31 21:43:00,57.0,55.9,30.09,West,275,0.0,10.0,96,0.00,,,0.00,Wunderground v.1.15,2013-08-01 04:43:00,
2013-07-31 21:48:00,57.0,55.9,30.09,West,275,0.0,10.0,96,0.00,,,0.00,Wunderground v.1.15,2013-08-01 04:48:00,
2013-07-31 21:54:00,57.0,55.9,30.09,West,275,0.0,10.0,96,0.00,,,0.00,Wunderground v.1.15,2013-08-01 04:54:00,
2013-07-31 21:59:00,57.0,55.9,30.09,West,275,0.0,10.0,96,0.00,,,0.00,Wunderground v.1.15,2013-08-01 04:59:00,
2013-07-31 22:04:00,57.0,55.9,30.09,West,275,0.0,10.0,96,0.00,,,0.00,Wunderground v.1.15,2013-08-01 05:04:00,
2013-07-31 22:09:00,56.9,55.8,30.09,West,275,0.0,10.0,96,0.00,,,0.00,Wunderground v.1.15,2013-08-01 05:09:00,
2013-07-31 22:14:00,57.0,55.9,30.09,West,275,0.0,10.0,96,0.00,,,0.00,Wunderground v.1.15,2013-08-01 05:14:00,
2013-07-31 22:20:00,56.9,55.8,30.09,West,275,0.0,10.0,96,0.00,,,0.00,Wunderground v.1.15,2013-08-01 05:20:00,
2013-07-31 22:26:00,57.0,55.9,30.09,West,275,0.0,10.0,96,0.00,,,0.00,Wunderground v.1.15,2013-08-01 05:26:00,
2013-07-31 22:32:00,57.0,55.9,30.09,West,275,0.0,10.0,96,0.00,,,0.00,Wunderground v.1.15,2013-08-01 05:32:00,
2013-07-31 22:38:00,56.9,55.8,30.09,West,275,0.0,10.0,96,0.00,,,0.00,Wunderground v.1.15,2013-08-01 05:38:00,
2013-07-31 22:43:00,56.9,55.8,30.09,West,275,0.0,10.0,96,0.00,,,0.00,Wunderground v.1.15,2013-08-01 05:43:00,
2013-07-31 22:49:00,56.9,55.8,30.09,West,275,0.0,10.0,96,0.00,,,0.00,Wunderground v.1.15,2013-08-01 05:49:00,
2013-07-31 22:54:00,56.9,55.8,30.09,West,275,0.0,10.0,96,0.00,,,0.00,Wunderground v.1.15,2013-08-01 05:54:00,
2013-07-31 23:00:00,56.9,55.8,30.09,West,275,0.0,10.0,96,0.00,,,0.00,Wunderground v.1.15,2013-08-01 06:00:00,
2013-07-31 23:05:00,56.9,55.8,30.08,West,275,0.0,10.0,96,0.00,,,0.00,Wunderground v.1.15,2013-08-01 06:05:00,
2013-07-31 23:10:00,56.9,55.8,30.08,West,275,0.0,10.0,96,0.00,,,0.00,Wunderground v.1.15,2013-08-01 06:10:00,
2013-07-31 23:15:00,56.9,55.8,30.08,West,275,0.0,10.0,96,0.00,,,0.00,Wunderground v.1.15,2013-08-01 06:15:00,
2013-07-31 23:21:00,56.9,56.1,30.08,West,275,0.0,10.0,97,0.00,,,0.00,Wunderground v.1.15,2013-08-01 06:21:00,
2013-07-31 23:26:00,56.9,56.1,30.08,West,275,0.0,10.0,97,0.00,,,0.00,Wunderground v.1.15,2013-08-01 06:26:00,
2013-07-31 23:31:00,56.9,56.1,30.08,West,275,0.0,10.0,97,0.00,,,0.00,Wunderground v.1.15,2013-08-01 06:31:00,
2013-07-31 23:37:00,56.9,56.1,30.08,West,275,0.0,10.0,97,0.00,,,0.00,Wunderground v.1.15,2013-08-01 06:37:00,
2013-07-31 23:42:00,56.9,56.1,30.08,West,275,0.0,10.0,97,0.00,,,0.00,Wunderground v.1.15,2013-08-01 06:42:00,
2013-07-31 23:47:00,56.8,56.0,30.08,West,275,0.0,10.0,97,0.00,,,0.00,Wunderground v.1.15,2013-08-01 06:47:00,
2013-07-31 23:52:00,56.8,56.0,30.08,West,275,0.0,10.0,97,0.00,,,0.00,Wunderground v.1.15,2013-08-01 06:52:00,
2013-07-31 23:57:00,56.8,56.0,30.09,West,275,0.0,10.0,97,0.00,,,0.00,Wunderground v.1.15,2013-08-01 06:57:00,